{"data":{"norad_id":68766,"intl_designator":"2026-086A","name":"STARLINK-37168","alt_names":[],"object_type":"PAYLOAD","status":"ACTIVE","operator":null,"country":"US","launch_date":"2026-04-19","launch_site_code":"AFWTR","launch_vehicle":null,"mission":null,"orbit_class":"UNKNOWN","rcs_meters":null,"size_class":null,"mass_kg":null,"dimensions":null,"purposes":["comms"],"wikipedia_slug":null,"has_3d_model":false,"image_url":null,"decayed_at":null,"tle_current":{"epoch":"2026-05-25T04:00:03.998880Z","epoch_age_seconds":61464,"freshness":"FRESH","line1":"1 68766U 26086A   26145.16671295 -.01901077  00000+0 -34906-1 0  9999","line2":"2 68766  97.2853 181.9280 0001617  51.8423  67.8800 15.52754616  6069","mean_motion":15.52754616,"eccentricity":0.0001617,"inclination_deg":97.2853,"raan_deg":181.928,"arg_perigee_deg":51.8423,"mean_anomaly_deg":67.88,"bstar":-0.034906,"rev_number":606,"period_min":92.738413730145,"perigee_km":407.59011819998,"apogee_km":409.78497725871,"semimajor_km":6786.8245477293,"source":"CELESTRAK","updated_at":"2026-05-25T13:38:22.032808Z"}}}